Location: Fours
(44.3167°N, 6.7000°E)
Time: 11:09:33
(UTC+00:00)

Cosmos 2227 - Visible Passes

Search period start: 29 May 2022 00:00
Search period end: 08 June 2022 00:00
Orbit: 834 x 862 km, 71.0° (Epoch: 29 May)

Date Brightness Start Highest point End Pass type
(mag) Time Alt. Az. Time Alt. Az. Time Alt. Az.
29 May 4.5 20:19:26 10° NNW 20:25:10 61° ENE 20:29:42 16° SE visible
29 May 6.0 22:04:38 10° NW 22:08:50 21° W 22:11:39 15° SW visible
30 May 4.5 20:06:14 10° NNW 20:11:58 60° ENE 20:17:01 13° SE visible
30 May 6.0 21:51:23 10° NW 21:55:39 22° W 21:58:58 13° SW visible
31 May 4.5 19:53:02 10° NNW 19:58:45 59° ENE 20:04:22 10° SE visible
31 May 6.1 21:38:09 10° NW 21:42:27 22° W 21:46:19 12° SSW visible
01 Jun 4.5 19:39:50 10° NNW 19:45:32 58° ENE 19:51:12 10° SE visible
01 Jun 6.1 21:24:54 10° NW 21:29:16 22° W 21:33:35 10° SSW visible
02 Jun 6.1 21:11:40 10° NW 21:16:04 23° W 21:20:26 10° SSW visible
03 Jun 6.1 20:58:26 10° NW 21:02:52 23° W 21:07:17 10° SSW visible
04 Jun 6.1 20:45:12 10° NW 20:49:39 24° W 20:54:07 10° SSW visible
05 Jun 6.1 20:31:57 10° NW 20:36:28 24° WSW 20:40:58 10° SSW visible
06 Jun 6.2 20:18:43 10° NW 20:23:16 25° WSW 20:27:48 10° SSW visible
07 Jun 6.2 20:05:29 10° NW 20:10:04 25° WSW 20:14:39 10° SSW visible
